{"data":{"norad_id":53726,"intl_designator":"2022-107AC","name":"STARLINK-4697","alt_names":[],"object_type":"PAYLOAD","status":"ACTIVE","operator":null,"country":"US","launch_date":"2022-09-05","launch_site_code":"AFETR","launch_vehicle":null,"mission":null,"orbit_class":"UNKNOWN","rcs_meters":null,"size_class":null,"mass_kg":null,"dimensions":null,"purposes":["comms"],"wikipedia_slug":null,"has_3d_model":false,"image_url":null,"decayed_at":null,"tle_current":{"epoch":"2026-05-24T18:54:58.139424Z","epoch_age_seconds":90575,"freshness":"FRESH","line1":"1 53726U 22107AC  26144.78817291  .00000273  00000+0  35219-4 0  9990","line2":"2 53726  53.2149 272.3738 0001285  90.6479 269.4660 15.08837557205900","mean_motion":15.08837557,"eccentricity":0.0001285,"inclination_deg":53.2149,"raan_deg":272.3738,"arg_perigee_deg":90.6479,"mean_anomaly_deg":269.466,"bstar":3.5219e-5,"rev_number":20590,"period_min":95.437709203311,"perigee_km":538.86190765831,"apogee_km":540.63980483737,"semimajor_km":6917.8878562478,"source":"CELESTRAK","updated_at":"2026-05-25T13:38:17.536156Z"}}}